Location: Napa Junction
(38.1874°N, 122.2508°W)
Time: 19:24:05
(UTC+00:00)

CENTAUR R/B - Visible Passes

Search period start: 05 December 2024 00:00
Search period end: 15 December 2024 00:00
Orbit: 657 x 1526 km, 63.4° (Epoch: 05 December)

Date Brightness Start Highest point End Pass type
(mag) Time Alt. Az. Time Alt. Az. Time Alt. Az.
05 Dec 5.7 02:03:37 10° WNW 02:10:18 24° WSW 02:17:16 10° SSW visible
05 Dec 5.0 14:03:02 10° SSE 14:06:58 22° ESE 14:11:27 10° ENE visible
06 Dec 5.0 01:13:36 10° NW 01:21:35 39° WSW 01:30:00 10° S visible
07 Dec 6.5 02:19:16 10° W 02:22:11 12° WSW 02:25:09 10° WSW visible
07 Dec 3.4 14:13:52 10° S 14:18:51 47° ESE 14:24:55 10° NE visible
08 Dec 6.0 01:27:17 10° WNW 01:33:39 22° WSW 01:40:16 10° SSW visible
08 Dec 4.6 13:26:08 10° SSE 13:30:17 24° ESE 13:35:06 10° NE visible
09 Dec 5.3 12:40:13 10° ESE 12:41:57 11° ESE 12:43:43 10° E visible
09 Dec 2.3 14:25:48 10° SW 14:31:05 83° WNW 14:37:42 10° NNE visible
10 Dec 6.5 01:44:08 10° W 01:45:31 10° W 01:46:53 10° WSW visible
10 Dec 3.0 13:37:09 10° SSW 13:42:13 53° ESE 13:48:24 10° NE visible
11 Dec 4.2 12:49:15 10° SSE 12:53:37 27° ESE 12:58:42 10° NE visible
11 Dec 2.7 14:38:32 10° WSW 14:43:44 43° NW 14:50:07 10° NNE visible
12 Dec 5.0 12:02:47 10° SE 12:05:14 13° ESE 12:07:51 10° ENE visible
12 Dec 2.2 13:49:12 10° SW 13:54:30 76° NW 14:01:08 10° NNE visible
13 Dec 2.7 13:00:28 10° SSW 13:05:35 59° ESE 13:11:53 10° NE visible
14 Dec 3.9 12:14:53 23° SSE 12:16:56 30° ESE 12:22:16 10° NE visible
14 Dec 2.8 14:02:07 10° WSW 14:07:12 40° NW 14:13:31 10° NNE visible
